[[{"header":{"parameterUnit":"m.s-1","parameterCategory":1,"la1":30.2991,"la2":30.254,"lo1":-89.0895,"lo2":-89.0444,"dy":0.0017,"dx":0.0017,"nx":28,"ny":28,"refTime":"2024-08-13T09:00:00:Z","depth":0,"parameterNumber":2,"parameterNumberName":"U-component_of_WINDS"},"data":[0,0,0,0,0,0,0,0,0,0,0,0,0,0,0,0,0,0,0,0,0,0,0,0,0,0,0,0,0,0,0,0,0,0,0,0,0,0,0,0,0,0,0,0,0,0,0,0,0,0,0,0,0,0,0,0,0,0,2.4868,2.487,0,2.5,2.5001,2.5003,2.4998,2.4996,2.4994,2.4993,2.5128,2.5133,2.5138,0,0,0,0,0,0,0,0,0,0,0,0,0,2.4613,2.4617,2.4868,2.487,2.4871,2.5,2.5001,2.5003,2.4998,2.4996,2.4994,2.4992,2.5126,2.5132,2.5139,0,0,0,0,0,0,0,0,0,0,0,0,0,2.4732,2.4619,2.4868,2.4884,2.4887,2.4999,2.5001,2.5004,2.4999,2.4996,2.4993,2.4991,2.5124,2.5132,2.514,2.5244,0,0,2.5164,2.5167,0,0,0,0,0,0,0,0,2.4725,2.4741,2.488,2.4883,2.4887,2.498,2.4961,2.5084,2.4999,2.4956,2.4993,2.4989,2.5081,2.5092,2.5123,2.525,2.5256,2.5165,2.5169,2.5173,2.5175,0,0,0,0,0,0,0,2.4717,2.4736,2.492,2.4882,2.4886,2.4885,2.4899,2.4984,2.5032,2.496,2.496,2.4976,2.5082,2.5115,2.5126,2.5258,2.5164,2.5171,2.5176,2.518,2.5477,2.548,0,0,0,0,0,0,2.4705,2.4729,2.4916,2.4924,2.4797,2.4892,2.4908,2.4953,2.5031,2.5041,2.4978,2.4975,2.5103,2.5117,2.5131,2.5257,2.5173,2.518,2.5185,2.5474,2.5478,2.5481,0,0,0,0,0,0,2.47,2.4722,2.4911,2.4827,2.485,2.4899,2.495,2.4957,2.499,2.5045,2.5054,2.5003,2.5101,2.512,2.5216,2.5262,2.5184,2.5191,2.5471,2.5475,2.548,2.5512,0,0,0,0,0,0,2.4692,2.472,2.476,2.4827,2.4855,2.4993,2.4953,2.4961,2.5003,2.5001,2.5071,2.508,2.5101,2.5204,2.5224,2.5272,2.5197,2.5467,2.5473,2.5478,2.5507,2.5517,2.5526,0,0,0,0,0,2.4683,2.4764,2.4762,2.4784,2.4906,2.4996,2.5012,2.5034,2.5007,2.5048,2.5083,2.5077,2.5254,2.5214,2.5236,2.5287,2.5464,2.5471,2.5478,2.5503,2.5515,2.5526,0,0,0,0,0,0,2.47,2.4773,2.4771,2.4876,2.493,2.4995,2.5047,2.5047,2.5109,2.5104,2.5129,2.5145,2.5241,2.5274,2.5228,2.5392,2.5356,2.5367,2.5367,2.5379,2.5388,2.5378,2.5204,0,0,0,0,0,2.4716,2.4783,2.4843,2.493,2.4957,2.4997,2.5037,2.505,2.5107,2.5129,2.5172,2.5227,2.5295,2.5339,2.5405,2.5512,2.5527,2.5558,2.5568,2.5575,2.5585,2.5644,2.5658,2.5505,2.5504,2.5504,0,0,2.475,2.4798,2.4838,2.4935,2.4977,2.5046,2.5016,2.509,2.5141,2.5141,2.5233,2.5267,2.533,2.5432,2.5479,2.5463,2.5631,2.5584,2.559,2.5595,2.5652,2.5667,2.568,2.5509,2.5508,2.5508,0,0,2.4846,2.4889,2.4966,2.501,2.5075,2.5102,2.512,2.5186,2.5208,2.5301,2.5302,2.5364,2.548,2.5525,2.5563,2.5677,2.5674,2.5698,2.5747,2.5804,2.5816,2.5827,2.5867,2.5881,2.5708,2.5708,2.5708,0,2.4879,2.4983,2.5005,2.508,2.5122,2.5125,2.5202,2.5244,2.5328,2.5357,2.5337,2.5483,2.5526,2.5638,2.5666,2.5697,2.5719,2.569,2.5813,2.5824,2.5834,2.5872,2.5887,2.571,2.571,2.571,2.571,0,2.502,2.5092,2.5146,2.5226,2.5275,2.5351,2.5385,2.5431,2.544,2.5469,2.5564,2.5616,2.5692,2.572,2.573,2.5834,2.5822,2.5807,2.5771,2.5851,2.5887,2.5902,2.5714,2.5713,2.5712,2.5712,0,0,2.5129,2.5222,2.5241,2.5278,2.5351,2.5407,2.5483,2.5557,2.5596,2.5654,2.5718,2.5817,2.5804,2.5847,2.5862,2.5912,2.5998,2.5892,2.5894,2.5909,2.6116,2.6125,2.6142,2.5997,2.6,2.6002,2.611,0,2.5232,2.5366,2.539,2.5507,2.5574,2.5578,2.5644,2.5696,2.5725,2.5785,2.5818,2.5887,2.5865,2.5891,2.5941,2.5977,2.604,2.597,2.6056,2.6059,2.6039,2.6161,2.6171,2.627,2.6124,2.6127,2.6129,0,2.537,2.5431,2.5555,2.5619,2.5648,2.5707,2.5776,2.5835,2.5894,2.5911,2.596,2.5969,2.6048,2.6009,2.6118,2.607,2.6107,2.613,2.6135,2.6143,2.6098,2.6171,2.6302,2.6317,2.6151,2.615,2.6148,0,2.5435,2.5549,2.5638,2.5669,2.5746,2.5788,2.5822,2.5878,2.5921,2.5983,2.6011,2.6081,2.6119,2.6173,2.62,2.617,2.6308,2.6271,2.6324,2.6323,2.6351,2.6349,2.6489,2.6378,2.6377,2.6377,2.6377,0,2.5547,2.5623,2.5669,2.5723,2.5808,2.5834,2.5918,2.5951,2.6001,2.6062,2.607,2.6128,2.6161,2.6223,2.6246,2.6332,2.635,2.6366,2.6371,2.6365,2.6362,2.6388,2.6381,2.6381,2.638,2.638,2.6379,0,2.5634,2.5668,2.5765,2.583,2.5848,2.5908,2.5964,2.6017,2.6046,2.6123,2.6143,2.6189,2.6262,2.6296,2.6387,2.6402,2.65,2.6501,2.648,2.6481,2.6532,2.6526,2.6693,2.6715,2.659,2.6591,2.6592,0,2.5702,2.5761,2.5832,2.5873,2.5908,2.5975,2.6019,2.6048,2.6093,2.6165,2.6209,2.6283,2.6344,2.6461,2.6503,2.6573,2.6574,2.6628,2.6585,2.6576,2.6573,2.6569,2.6575,2.6635,2.6636,2.6637,2.6638,0,2.582,2.5834,2.5897,2.5966,2.6018,2.6074,2.6129,2.6162,2.6199,2.625,2.6325,2.6372,2.6465,2.6538,2.6611,2.6646,2.6648,2.6652,2.6667,2.6661,2.6646,2.6653,2.65,2.6647,2.6646,2.6646,2.6645,2.6645,2.5899,2.595,2.6009,2.6078,2.6123,2.6174,2.6227,2.6262,2.6326,2.6403,2.6416,2.6496,2.6554,2.6652,2.669,2.6753,2.674,2.6763,2.6769,2.6773,2.6776,2.6637,2.6766,2.6766,2.6766,2.6766,2.6766,0,2.6015,2.6053,2.6117,2.6193,2.6248,2.6246,2.6307,2.6353,2.6423,2.6477,2.6536,2.6622,2.6693,2.6741,2.6813,2.6854,2.6857,2.6872,2.6868,2.6876,2.6784,2.6762,2.6868,2.6868,2.6868,2.6868,2.6868,2.6868,2.6082,2.6169,2.619,2.6299,2.6337,2.6415,2.6449,2.6496,2.6539,2.6635,2.6694,2.6725,2.6776,2.6852,2.6917,2.6929,2.6955,2.697,2.6981,2.6894,2.6883,2.6873,2.6852,2.6976,2.6976,2.7069,2.7069,2.707]},{"header":{"parameterUnit":"m.s-1","parameterCategory":1,"la1":30.2991,"la2":30.254,"lo1":-89.0895,"lo2":-89.0444,"dy":0.0017,"dx":0.0017,"nx":28,"ny":28,"refTime":"2024-08-13T09:00:00:Z","depth":0,"parameterNumber":3,"parameterNumberName":"V-component_of_WINDS"},"data":[0,0,0,0,0,0,0,0,0,0,0,0,0,0,0,0,0,0,0,0,0,0,0,0,0,0,0,0,0,0,0,0,0,0,0,0,0,0,0,0,0,0,0,0,0,0,0,0,0,0,0,0,0,0,0,0,0,0,-0.7108,-0.7108,0,-0.7074,-0.7073,-0.7073,-0.7057,-0.7057,-0.7057,-0.7057,-0.7018,-0.7017,-0.7016,0,0,0,0,0,0,0,0,0,0,0,0,0,-0.7159,-0.7158,-0.7109,-0.7108,-0.7108,-0.7074,-0.7073,-0.7073,-0.7057,-0.7057,-0.7057,-0.7057,-0.7018,-0.7017,-0.7015,0,0,0,0,0,0,0,0,0,0,0,0,0,-0.7132,-0.7157,-0.7109,-0.7096,-0.7094,-0.7074,-0.7073,-0.7073,-0.7057,-0.7057,-0.7057,-0.7057,-0.7018,-0.7017,-0.7015,-0.7004,0,0,-0.701,-0.701,0,0,0,0,0,0,0,0,-0.7133,-0.713,-0.7098,-0.7096,-0.7095,-0.707,-0.7077,-0.705,-0.7057,-0.7071,-0.7057,-0.7057,-0.7035,-0.7032,-0.7025,-0.7002,-0.7001,-0.701,-0.7009,-0.7009,-0.7008,0,0,0,0,0,0,0,-0.7135,-0.7131,-0.7095,-0.7097,-0.7096,-0.7091,-0.7087,-0.7071,-0.7053,-0.7069,-0.7068,-0.7064,-0.7034,-0.7027,-0.7024,-0.7,-0.701,-0.7009,-0.7008,-0.7007,-0.6967,-0.6967,0,0,0,0,0,0,-0.7139,-0.7133,-0.7096,-0.7094,-0.7115,-0.709,-0.7085,-0.7078,-0.7053,-0.7049,-0.7064,-0.7064,-0.7029,-0.7026,-0.7022,-0.7008,-0.7009,-0.7007,-0.7006,-0.6967,-0.6967,-0.6967,0,0,0,0,0,0,-0.7141,-0.7136,-0.7097,-0.7113,-0.7108,-0.7089,-0.708,-0.7077,-0.707,-0.7049,-0.7045,-0.7061,-0.7029,-0.7025,-0.7009,-0.7007,-0.7006,-0.7005,-0.6967,-0.6967,-0.6967,-0.698,0,0,0,0,0,0,-0.7142,-0.7137,-0.7133,-0.7113,-0.7107,-0.7085,-0.708,-0.7076,-0.7067,-0.7066,-0.7045,-0.7041,-0.7029,-0.7012,-0.7008,-0.7004,-0.7004,-0.6968,-0.6967,-0.6967,-0.6979,-0.698,-0.698,0,0,0,0,0,-0.7144,-0.7137,-0.7133,-0.7128,-0.7102,-0.7085,-0.7082,-0.7069,-0.7067,-0.7063,-0.705,-0.7042,-0.7008,-0.701,-0.7006,-0.7002,-0.6968,-0.6967,-0.6967,-0.6979,-0.698,-0.698,0,0,0,0,0,0,-0.7156,-0.7134,-0.7129,-0.7116,-0.7103,-0.7083,-0.7077,-0.707,-0.7056,-0.7055,-0.7039,-0.7034,-0.702,-0.7009,-0.7012,-0.699,-0.6987,-0.6986,-0.6997,-0.6998,-0.6999,-0.7001,-0.7002,0,0,0,0,0,-0.7157,-0.7147,-0.7128,-0.7118,-0.7111,-0.7095,-0.7088,-0.7079,-0.7064,-0.7058,-0.7044,-0.7029,-0.7015,-0.7006,-0.6992,-0.6978,-0.6973,-0.6973,-0.6973,-0.6974,-0.6973,-0.6965,-0.6965,-0.6966,-0.6966,-0.6966,0,0,-0.7159,-0.7146,-0.714,-0.712,-0.7108,-0.7097,-0.7091,-0.7079,-0.707,-0.7056,-0.7041,-0.703,-0.7012,-0.6998,-0.699,-0.6988,-0.6972,-0.6974,-0.6974,-0.6973,-0.6965,-0.6965,-0.6964,-0.6966,-0.6966,-0.6966,0,0,-0.7157,-0.7147,-0.7137,-0.7126,-0.711,-0.7099,-0.7097,-0.7078,-0.7071,-0.7056,-0.7045,-0.7034,-0.701,-0.6998,-0.6989,-0.6984,-0.6976,-0.6979,-0.6982,-0.6974,-0.6974,-0.6974,-0.6972,-0.6972,-0.6979,-0.6979,-0.6979,0,-0.7162,-0.7145,-0.7133,-0.7122,-0.7113,-0.7102,-0.7092,-0.7081,-0.7061,-0.7055,-0.7053,-0.7023,-0.701,-0.6993,-0.6992,-0.6985,-0.6981,-0.6982,-0.6975,-0.6975,-0.6975,-0.6973,-0.6972,-0.6979,-0.6979,-0.6979,-0.6979,0,-0.7151,-0.714,-0.7134,-0.7116,-0.7107,-0.7096,-0.7082,-0.7074,-0.7066,-0.7056,-0.704,-0.7025,-0.7008,-0.7003,-0.6995,-0.6984,-0.6983,-0.6979,-0.6975,-0.6975,-0.6973,-0.6972,-0.698,-0.698,-0.698,-0.698,0,0,-0.7155,-0.7131,-0.7129,-0.7121,-0.7103,-0.7093,-0.7082,-0.7067,-0.706,-0.7046,-0.7036,-0.7017,-0.7013,-0.7002,-0.6993,-0.6986,-0.6983,-0.6982,-0.6981,-0.6983,-0.697,-0.6974,-0.6973,-0.6978,-0.6978,-0.6977,-0.6972,0,-0.7151,-0.7131,-0.7121,-0.7106,-0.7095,-0.7084,-0.7074,-0.7061,-0.7051,-0.704,-0.7029,-0.7015,-0.7011,-0.7005,-0.6998,-0.6985,-0.698,-0.6985,-0.6968,-0.6967,-0.6972,-0.6972,-0.6975,-0.6971,-0.6971,-0.6971,-0.6971,0,-0.7143,-0.7131,-0.7115,-0.7098,-0.7093,-0.7085,-0.707,-0.706,-0.7045,-0.7038,-0.7027,-0.7018,-0.7005,-0.7003,-0.6985,-0.6989,-0.6981,-0.6974,-0.6973,-0.6971,-0.6969,-0.6969,-0.6969,-0.6969,-0.6969,-0.6969,-0.6969,0,-0.7147,-0.7127,-0.7115,-0.7108,-0.7088,-0.7083,-0.7074,-0.7059,-0.7051,-0.7038,-0.7032,-0.7017,-0.7008,-0.6997,-0.6984,-0.6983,-0.6967,-0.6964,-0.696,-0.6961,-0.6957,-0.6957,-0.6955,-0.6952,-0.6952,-0.6952,-0.6952,0,-0.7143,-0.7134,-0.7117,-0.7109,-0.7099,-0.7086,-0.7075,-0.7066,-0.7053,-0.7043,-0.7032,-0.7023,-0.7006,-0.6995,-0.6984,-0.6971,-0.6967,-0.6961,-0.6958,-0.6962,-0.6963,-0.6956,-0.6956,-0.6952,-0.6952,-0.6952,-0.6952,0,-0.7146,-0.7134,-0.7121,-0.7103,-0.7099,-0.7092,-0.7077,-0.7069,-0.7059,-0.7046,-0.7042,-0.7026,-0.7012,-0.6998,-0.6979,-0.6972,-0.6959,-0.6955,-0.6964,-0.6962,-0.696,-0.696,-0.6953,-0.6952,-0.695,-0.695,-0.695,0,-0.7144,-0.7137,-0.7119,-0.7113,-0.7104,-0.7093,-0.7085,-0.7072,-0.7064,-0.7047,-0.7041,-0.7027,-0.7014,-0.6992,-0.6978,-0.6963,-0.6959,-0.6958,-0.6957,-0.6961,-0.6959,-0.6959,-0.6958,-0.6958,-0.6958,-0.6958,-0.6958,0,-0.7142,-0.7136,-0.7125,-0.7113,-0.7103,-0.7092,-0.7081,-0.7075,-0.706,-0.7051,-0.7038,-0.7028,-0.7009,-0.6995,-0.6979,-0.6969,-0.6961,-0.6959,-0.6957,-0.6961,-0.6966,-0.6963,-0.6965,-0.6959,-0.6959,-0.6959,-0.6959,-0.6959,-0.7142,-0.7135,-0.7122,-0.711,-0.7101,-0.709,-0.7082,-0.7072,-0.706,-0.7045,-0.7038,-0.7024,-0.7009,-0.6987,-0.6977,-0.6966,-0.6964,-0.6961,-0.6961,-0.696,-0.6961,-0.6969,-0.6963,-0.6963,-0.6963,-0.6963,-0.6962,0,-0.7139,-0.713,-0.712,-0.7105,-0.7095,-0.709,-0.7077,-0.7069,-0.7058,-0.7045,-0.7034,-0.7018,-0.7004,-0.699,-0.6975,-0.6968,-0.6964,-0.6965,-0.6965,-0.6963,-0.6964,-0.6967,-0.6968,-0.6968,-0.6968,-0.6968,-0.6968,-0.6968,-0.7136,-0.7125,-0.7118,-0.7102,-0.7093,-0.708,-0.7073,-0.7064,-0.7054,-0.7037,-0.7026,-0.7017,-0.7004,-0.6988,-0.6975,-0.6971,-0.6966,-0.6967,-0.6962,-0.6963,-0.6963,-0.6962,-0.6965,-0.6966,-0.6966,-0.6962,-0.6962,-0.6962]}]]